Weather History for Big Delta, AK

Change the Weather History Date:

Monday, November 25, 2013

  Actual Average Record
Temperature  
Mean Temperature 10 °F -  
Max Temperature 19 °F 12 °F 39 °F (2002)
Min Temperature 1 °F 1 °F -24 °F (2011)
Degree Days  
Heating Degree Days 55    
Moisture  
Dew Point 3 °F    
Average Humidity 79    
Maximum Humidity 87    
Minimum Humidity 59    
Precipitation  
Precipitation 0.00 in - - ()
Sea Level Pressure  
Sea Level Pressure 30.07 in    
Wind  
Wind Speed 6 mph (SE)    
Max Wind Speed 20 mph    
Max Gust Speed -    
Visibility 10 miles    
Events      
Averages and records for this station are not official NWS values.
T = Trace of Precipitation, MM = Missing Value Source: NWS Daily Summary

Daily Weather History Graph

Daily Weather History Graph

Search for Another Location

Airport:

Trip Planner

Search our weather history database for the weather conditions in past years. The results will help you decide how hot, cold, wet, or windy it might be!

Date:

Astronomy

Nov. 25, 2013 Rise Set
Actual Time 9:43 AM AKST 3:16 PM AKST
Civil Twilight 8:37 AM AKST 4:22 PM AKST
Nautical Twilight 7:33 AM AKST 5:25 PM AKST
Astronomical Twilight 6:36 AM AKST 6:23 PM AKST
Moon No Moon Rise 1:27 PM AKST (11/25)
Length of Visible Light 7h 45m
Length of Day
5h 33m
Waning Gibbous, 49% of the Moon is Illuminated
Nov 25
Waning Gibbous
Dec 2
New
Dec 9
First Quarter
Dec 17
Full
Dec 25
Last Quarter

Hourly Weather History & Observations

Time (AKST) Temp. Windchill Dew Point Humidity Pressure Visibility Wind Dir Wind Speed Gust Speed Precip Events Conditions
12:53 AM 19.0 °F 3.2 °F 9.0 °F 65% 30.07 in 10.0 mi ESE 19.6 mph - N/A   Scattered Clouds
1:53 AM 18.0 °F 4.2 °F 8.1 °F 65% 30.07 in 10.0 mi SE 13.8 mph - N/A   Mostly Cloudy
2:53 AM 15.1 °F 9.4 °F 7.0 °F 70% 30.09 in 10.0 mi SW 3.5 mph - N/A   Overcast
3:53 AM 10.9 °F 1.4 °F 7.0 °F 84% 30.10 in 10.0 mi WNW 5.8 mph - N/A   Clear
4:53 AM 9.0 °F -0.9 °F 5.0 °F 84% 30.12 in 10.0 mi WSW 5.8 mph - N/A   Clear
5:53 AM 7.0 °F -3.3 °F 3.0 °F 84% 30.14 in 10.0 mi WSW 5.8 mph - N/A   Clear
6:53 AM 6.1 °F - 3.0 °F 87% 30.14 in 10.0 mi Calm Calm - N/A   Clear
7:53 AM 7.0 °F - 3.9 °F 87% 30.13 in 10.0 mi Calm Calm - N/A   Clear
8:53 AM 5.0 °F -4.1 °F 1.9 °F 87% 30.13 in 10.0 mi SSE 4.6 mph - N/A   Clear
9:53 AM 1.9 °F - -2.0 °F 83% 30.13 in 10.0 mi Calm Calm - N/A   Scattered Clouds
10:53 AM 1.9 °F -5.6 °F -2.0 °F 83% 30.12 in 10.0 mi ESE 3.5 mph - N/A   Mostly Cloudy
11:53 AM 3.9 °F - -0.0 °F 84% 30.11 in 10.0 mi Calm Calm - N/A   Mostly Cloudy
12:53 PM 5.0 °F - 1.0 °F 84% 30.10 in 10.0 mi Calm Calm - N/A   Mostly Cloudy
1:53 PM 7.0 °F - 3.0 °F 84% 30.06 in 10.0 mi Calm Calm - N/A   Mostly Cloudy
2:53 PM 6.1 °F - 3.0 °F 87% 30.05 in 10.0 mi Calm Calm - N/A   Mostly Cloudy
3:53 PM 5.0 °F - 1.0 °F 84% 30.04 in 10.0 mi Calm Calm - N/A   Mostly Cloudy
4:53 PM 3.9 °F - -0.0 °F 84% 30.04 in 10.0 mi Calm Calm - N/A   Mostly Cloudy
5:53 PM 3.9 °F - -0.0 °F 84% 30.03 in 10.0 mi Calm Calm - N/A   Mostly Cloudy
6:53 PM 6.1 °F - 1.0 °F 80% 30.02 in 10.0 mi Calm Calm - N/A   Mostly Cloudy
7:53 PM 3.9 °F - -0.9 °F 80% 30.01 in 10.0 mi Calm Calm - N/A   Mostly Cloudy
8:53 PM 6.1 °F -2.8 °F 1.0 °F 80% 30.00 in 10.0 mi ENE 4.6 mph - N/A   Mostly Cloudy
9:53 PM 8.1 °F -2.0 °F 1.9 °F 76% 30.00 in 10.0 mi East 5.8 mph - N/A   Partly Cloudy
10:53 PM 10.0 °F -0.9 °F 3.0 °F 73% 30.01 in 10.0 mi ENE 6.9 mph - N/A   Clear
11:53 PM 9.0 °F - 1.9 °F 73% 30.01 in 10.0 mi Calm Calm - N/A   Clear